Kuiper-00093

operational
NORAD ID: 64838 Int'l Des: 2025-151 Owner: KUIP Country: US Constellation: kuiper
LEOCIRCULAR

Über Kuiper-00093

Beschreibung wird geladen...

Live-Position

3D-Globus wird geladen...

Nächste Überflüge

Höhenverlauf

Altitude vs Time

uPlot chart will show altitude changes over time

Zweizeiliger Elementsatz

1 64838U 25151Y 25340.00279633 .00001134 00000-0 17782-3 0 9994
2 64838 51.9010 347.3614 0013787 299.7011 60.2578 14.79954476 21535
Epoch: 6. Dez. 2025 • Age: 29 hours

Aktueller Status

Höhe 625.5 km
Geschwindigkeit 7.55 km/s
Subsatellitenpunkt -13.60°S, 177.47°E
Startdatum 16. Juli 2025
Alter 0.3 years
Typ internet

Technische Details

Klassifizierung Payload
Masse 490.00 kg
Trockenmasse 490.00 kg
Gesamtmasse 490.00 kg
Länge 1.80 m
Durchmesser 0.70 m
Spannweite 5.00 m
Form Box + 2 pan
Hersteller KUIP
Bus-Typ Kuiper
Phasenstatus In Orbit
Besitzer/Staat KUIP/US

Große Konstellationen

Loading constellations...